STARLINK-32308, 61663

Orbit data source: Space-Track

STARLINK-32308, 61663 is a payload satellite owned by SpaceX/Seattle (US) in LEO that was launched on Sat, 26 Oct 2024 UTC via an FALCON 9 launch vehicle from the Air Force Eastern Test Range (AFETR). Payload-class satellites include a variety of spacecraft equipped with specific instruments for various scientific and technological missions. These include communications satellites like Starlink; space stations such as the ISS; scientific satellites like the Hubble; Earth observation satellites from companies like Planet Labs, Umbra, and HawkEye 360; GPS; miniature CubeSats for education and research; and military/defense satellites.

Loading next visibility...
Identifier
61663, 2024-193C
Orbit
LEO
Country
Flag of USUS
Related business
Manufacturer
SpaceX/Seattle
Mission
Operational Commercial Communications
Bus & Motor
STARLINK V2M, Unknown motor
Mass
730 kg wet, ~700 kg dry
Launch date (UTC)
2024-10-26 (2 years ago)
Launch vehicle
FALCON 9
Launch site
Air Force Eastern Test Range (AFETR)
Object type
Payload
Rocket body
Debris
Shape & HBR
Box + 2 Pan, 17.7 m
Radar Cross Section
33.884 m², Large (>1 m²)

Expand to show TLE details & history
Last TLE update: 16 hours ago

TLE from 16 hours ago
0 STARLINK-32308
1 61663U 24193C   26171.18825072 -.00000290  00000-0  25354-5 0  9997
2 61663  53.1614 333.2102 0001081  92.5199 267.5928 15.34394898 92243
Epoch: 2026-06-20T04:31Z
TLE epoch observation values (Epoch: 2026-06-20T04:31:04.862Z)
Latitude
0.00004°
Longitude
-2.96649°
Altitude
463.651 km
Speed
7.636 km/s
True Right ascension
22h 12m 50s
True Declination
0° 00' 00"
Sunlit
Object was in full shadow at epoch
Visualization orbit readout
Latitude
Unknown
Longitude
Unknown
Altitude
Unknown
Speed
Unknown
Apparent Right ascension
Unknown
Apparent Declination
Unknown
Sunlit
N/A
Visualization observer readout
Local Sidereal Time
07:19:07
Azimuth
Unknown
Elevation
Unknown
Doppler factor
Unknown
Orbital elements
Apogee altitude
463.715 km
Perigee altitude
462.236 km
Semi-major axis
6,841.112 km
Eccentricity
0.00011
Inclination
53.1614°
RAAN
333.2102°
Arg. of periapsis
92.5199°
True anomaly
267.58042°
Mean anomaly
267.5928°
Eccentric anomaly
267.58661°
Mean motion
3.83577 °/min
Orbital period
93.85 mins
BSTAR
0.0000025354
Loading maneuver chart data...
Computing Atmospheric mass density...
Loading historical data...
Loading historical data...
Loading historical data...
Loading historical data...
Loading historical data...
Loading historical data...
Loading historical data...

Documentation

Showing up to 5 results
|